Weather in Kommayak

Russia / Stavropol Krai     44°06′20″N   43°51′29″E
temp.,
°C
wind,
m/s
gust,
m/s
humid.,
%
clouds,
%
prec.,
mm/h
press.,
hPa
HPBL,
m
18 may, tue
tue1800:00+16wnw81489100 0.3 1008540
03:00+15nw7139299 1.9 1009578
06:00+15nw61289100 0.3 1011568
09:00+16nw4883100 0.3 1011626
12:00+21n345740 0.0 10121370
15:00+22n225281 0.0 10111646
18:00+21ne23665 0.0 101197
21:00+16e22790 0.0 101220
19 may, wed
wed1900:00+14se22850 0.0 101121
03:00+13se33900 0.0 101040
06:00+14se4986100 0.0 1008231
09:00+18se237063 0.0 1010535
12:00+22nw536190 0.1 10101246
15:00+13nw71389100 2.3 1015604
18:00+15nnw138228 1.8 1016373
21:00+14s238879 1.8 101757
20 may, thu
thu2000:00+12s22900 0.0 101721
03:00+11sse2291100 0.0 101722
06:00+12sse35905 0.0 1018165
09:00+18se68635 0.0 10171006
12:00+21se78505 0.0 10161380
15:00+22ese674787 0.0 10151334
18:00+21ese47570 0.0 1015325
21:00+16ese412722 0.0 1016223
21 may, fri
fri2100:00+13se47660 0.0 1015120
03:00+11se34750 0.0 101459
06:00+13se23760 0.0 101497
09:00+20ese34580 0.0 1013463
12:00+25e56500 0.0 1012853
15:00+28ese67430 0.0 10111156
18:00+25e610565 0.0 1011409
21:00+17ese48690 0.0 1013169
22 may, sat
sat2200:00+14ese348024 0.0 101264
03:00+13se228356 0.0 101132
06:00+15ese23795 0.0 1011107
09:00+22e446220 0.0 1010453
12:00+27e5650100 0.0 1009845
15:00+30ese5741100 0.0 10071286
18:00+26e595496 0.0 1007275
21:00+19nne2263100 0.0 100824